Flag for Austria Weather past 2 weeks in Graz, Styria, Austria

61 °F

Light rain. Partly sunny.

Feels Like: 61 °F
Forecast: 53 / 58 °F
Wind: 2 mph from Southwest

Location: Graz-Thalerhof-Flughafen

Current Time: Oct 6, 2015 at 6:32:16 PM

Latest Report: Oct 6, 2015 at 5:50 PM

Visibility: N/A

Pressure: 29.83 "Hg

Humidity: 83%

Dew point: 55 °F

Location of GrazLocation

Historic Weather in Graz — Graph


Graz temperature yesterday

Maximum temperature yesterday: 70 °F (at 2:50 PM)
Minimum temperature yesterday: 48 °F (at 5:50 AM)
Average temperature yesterday: 58 °F

Past Weeks' High & Low Weather Summary

High70 °F (Oct 5, 2:50 PM)100% (Sep 22, 2:50 AM)30.48 "Hg (Sep 22, 2:50 AM)
Low36 °F (Sep 29, 4:50 AM)37% (Sep 28, 3:50 PM)29.71 "Hg (Sep 23, 3:50 AM)
Average54 °F77%30.15 "Hg
* Reported Sep 21 5:20 PM — Oct 6 5:20 PM, Graz, Weather by CustomWeather, © 2015

Note: Actual official high and low records may vary slightly from our data, if they occured in-between our weather recording intervals... More about our weather records


Graz weather history for previous 24 hours

Time TempWeatherWind HumidityBarometerVisibility
5:20 PM
Tue, Oct 6
61 °FLight rain. Partly sunny.2 mph83%29.83 "HgN/A
4:50 PM63 °FPartly sunny.2 mph73%29.83 "HgN/A
4:20 PM63 °FPartly sunny.2 mph73%29.83 "HgN/A
3:50 PM64 °FBroken clouds.2 mph68%29.83 "HgN/A
3:20 PM63 °FBroken clouds.2 mph73%29.83 "HgN/A
2:50 PM63 °FPartly sunny.3 mph73%29.83 "HgN/A
2:20 PM63 °FBroken clouds.1 mph68%29.86 "HgN/A
1:50 PM63 °FBroken clouds.1 mph68%29.86 "HgN/A
1:20 PM63 °FBroken clouds.3 mph73%29.86 "HgN/A
12:50 PM61 °FBroken clouds.2 mph77%29.86 "HgN/A
12:20 PM61 °FBroken clouds.1 mph72%29.89 "HgN/A
11:50 AM59 °FBroken clouds.1 mph77%29.89 "HgN/A
11:20 AM59 °FBroken clouds.1 mph77%29.89 "HgN/A
10:50 AM55 °FBroken clouds.1 mph88%29.89 "HgN/A
10:20 AM54 °FBroken clouds.1 mph88%29.89 "HgN/A
9:50 AM54 °FPartly sunny.2 mph94%29.89 "HgN/A
9:20 AM52 °FPartly sunny.1 mph94%29.92 "HgN/A
8:50 AM50 °FPartly sunny.2 mph94%29.92 "HgN/A
8:20 AM50 °FPartly sunny.1 mph94%29.89 "HgN/A
7:50 AM48 °FPassing clouds.1 mph100%29.89 "HgN/A
7:20 AM46 °FFog.2 mph93%29.92 "HgN/A
6:50 AM45 °FFog.2 mph100%29.89 "HgN/A
6:20 AM46 °FClear.2 mph100%29.92 "Hg10 mi
5:50 AM46 °FClear.3 mph100%29.92 "Hg10 mi
5:20 AM46 °FPassing clouds.No wind100%29.92 "HgN/A
4:50 AM46 °FPassing clouds.2 mph100%29.92 "HgN/A
4:20 AM48 °FPassing clouds.3 mph94%29.92 "HgN/A
3:50 AM48 °FOvercast.1 mph94%29.92 "HgN/A
3:20 AM46 °FPassing clouds.1 mph100%29.95 "HgN/A
2:50 AM46 °FPassing clouds.1 mph93%29.95 "HgN/A
2:20 AM46 °FCool.1 mph100%29.95 "Hg2 mi
1:50 AM48 °FCool.1 mph94%29.98 "HgN/A
1:20 AM48 °FPassing clouds.3 mph94%29.98 "HgN/A
12:50 AM50 °FPartly cloudy.2 mph94%29.98 "HgN/A
11:50 PM
Mon, Oct 5
48 °FCool.1 mph100%29.98 "HgN/A
10:50 PM50 °FClear.2 mph94%30.01 "Hg10 mi
10:20 PM50 °FClear.1 mph94%30.01 "Hg10 mi
9:50 PM52 °FClear.1 mph94%30.01 "Hg10 mi
9:20 PM55 °FClear.2 mph82%30.01 "Hg10 mi
8:50 PM54 °FClear.2 mph94%30.01 "Hg10 mi
8:20 PM55 °FClear.2 mph82%30.01 "Hg10 mi
7:50 PM55 °FClear.2 mph82%30.01 "Hg10 mi
7:20 PM57 °FSunny.1 mph77%30.01 "Hg10 mi
6:50 PM59 °FSunny.1 mph72%29.98 "Hg10 mi
6:20 PM61 °FPassing clouds.1 mph68%29.98 "HgN/A
Weather by CustomWeather, © 2015

See weather overviewHow to use our weather pages